Voltar ao catálogo

STARLINK-37483

AtivoComunicaçõesSSO
NORAD 68856·PAYLOAD·🇺🇸 United States

Lançado Apr 26, 2026 de Vandenberg Space Force Base

Loading…

Próximas Passagens (próximas 24 horas)

TLE

AtualizadoSource: CelesTrak SupGP

Época: Sep 14, 2026, 21:04 UTC

1 68856C 26094T   26257.87826389  .00038508  00000+0  11961-2 0  2577
2 68856  97.2837 271.1177 0001663  87.7843  82.3620 15.33399851    19

Acompanhe STARLINK-37483 em tempo real com AllMySat

Download on the App Store